Year,Month,Day,Hour,Minute,Value (Times are PST for temperature in C)
2016,08,15,00,00,22.80
2016,08,15,00,01,22.80
2016,08,15,00,02,22.80
2016,08,15,00,03,22.80
2016,08,15,00,04,22.80
2016,08,15,00,05,22.80
2016,08,15,00,06,22.80
2016,08,15,00,07,22.80
2016,08,15,00,08,22.70
2016,08,15,00,09,22.70
2016,08,15,00,10,22.70
2016,08,15,00,11,22.70
2016,08,15,00,12,22.70
2016,08,15,00,13,22.70
2016,08,15,00,14,22.70
2016,08,15,00,15,22.70
2016,08,15,00,16,22.70
2016,08,15,00,17,22.70
2016,08,15,00,18,22.60
2016,08,15,00,19,22.60
2016,08,15,00,20,22.60
2016,08,15,00,21,22.60
2016,08,15,00,22,22.60
2016,08,15,00,23,22.60
2016,08,15,00,24,22.50
2016,08,15,00,25,22.50
2016,08,15,00,26,22.50
2016,08,15,00,27,22.40
2016,08,15,00,28,22.40
2016,08,15,00,29,22.40
2016,08,15,00,30,22.40
2016,08,15,00,31,22.30
2016,08,15,00,32,22.30
2016,08,15,00,33,22.30
2016,08,15,00,34,22.30
2016,08,15,00,35,22.30
2016,08,15,00,36,22.20
2016,08,15,00,37,22.20
2016,08,15,00,38,22.20
2016,08,15,00,39,22.20
2016,08,15,00,40,22.20
2016,08,15,00,41,22.20
2016,08,15,00,42,22.10
2016,08,15,00,43,22.10
2016,08,15,00,44,22.10
2016,08,15,00,45,22.10
2016,08,15,00,46,22.10
2016,08,15,00,47,22.10
2016,08,15,00,48,22.10
2016,08,15,00,49,22.00
2016,08,15,00,50,22.00
2016,08,15,00,51,22.00
2016,08,15,00,52,22.00
2016,08,15,00,53,21.90
2016,08,15,00,54,21.90
2016,08,15,00,55,21.90
2016,08,15,00,56,21.90
2016,08,15,00,57,21.80
2016,08,15,00,58,21.80
2016,08,15,00,59,21.80
2016,08,15,01,00,21.80
2016,08,15,01,01,21.80
2016,08,15,01,02,21.70
2016,08,15,01,03,21.70
2016,08,15,01,04,21.70
2016,08,15,01,05,21.70
2016,08,15,01,06,21.60
2016,08,15,01,07,21.60
2016,08,15,01,08,21.60
2016,08,15,01,09,21.60
2016,08,15,01,10,21.60
2016,08,15,01,11,21.60
2016,08,15,01,12,21.60
2016,08,15,01,13,21.60
2016,08,15,01,14,21.60
2016,08,15,01,15,21.60
2016,08,15,01,16,21.50
2016,08,15,01,17,21.50
2016,08,15,01,18,21.50
2016,08,15,01,19,21.50
2016,08,15,01,20,21.50
2016,08,15,01,21,21.50
2016,08,15,01,22,21.40
2016,08,15,01,23,21.40
2016,08,15,01,24,21.40
2016,08,15,01,25,21.40
2016,08,15,01,26,21.30
2016,08,15,01,27,21.30
2016,08,15,01,28,21.30
2016,08,15,01,29,21.30
2016,08,15,01,30,21.30
2016,08,15,01,31,21.30
2016,08,15,01,32,21.30
2016,08,15,01,33,21.20
2016,08,15,01,34,21.20
2016,08,15,01,35,21.20
2016,08,15,01,36,21.20
2016,08,15,01,37,21.20
2016,08,15,01,38,21.20
2016,08,15,01,39,21.20
2016,08,15,01,40,21.20
2016,08,15,01,41,21.20
2016,08,15,01,42,21.20
2016,08,15,01,43,21.20
2016,08,15,01,44,21.20
2016,08,15,01,45,21.10
2016,08,15,01,46,21.10
2016,08,15,01,47,21.10
2016,08,15,01,48,21.10
2016,08,15,01,49,21.10
2016,08,15,01,50,21.00
2016,08,15,01,51,21.00
2016,08,15,01,52,21.00
2016,08,15,01,53,20.90
2016,08,15,01,54,20.90
2016,08,15,01,55,20.90
2016,08,15,01,56,20.80
2016,08,15,01,57,20.80
2016,08,15,01,58,20.80
2016,08,15,01,59,20.70
2016,08,15,02,00,20.70
2016,08,15,02,01,20.70
2016,08,15,02,02,20.70
2016,08,15,02,03,20.70
2016,08,15,02,04,20.70
2016,08,15,02,05,20.60
2016,08,15,02,06,20.60
2016,08,15,02,07,20.60
2016,08,15,02,08,20.60
2016,08,15,02,09,20.60
2016,08,15,02,10,20.50
2016,08,15,02,11,20.50
2016,08,15,02,12,20.50
2016,08,15,02,13,20.40
2016,08,15,02,14,20.40
2016,08,15,02,15,20.40
2016,08,15,02,16,20.40
2016,08,15,02,17,20.30
2016,08,15,02,18,20.30
2016,08,15,02,19,20.30
2016,08,15,02,20,20.30
2016,08,15,02,21,20.30
2016,08,15,02,22,20.30
2016,08,15,02,23,20.30
2016,08,15,02,24,20.30
2016,08,15,02,25,20.20
2016,08,15,02,26,20.20
2016,08,15,02,27,20.20
2016,08,15,02,28,20.20
2016,08,15,02,29,20.20
2016,08,15,02,30,20.20
2016,08,15,02,31,20.20
2016,08,15,02,32,20.10
2016,08,15,02,33,20.10
2016,08,15,02,34,20.10
2016,08,15,02,35,20.10
2016,08,15,02,36,20.10
2016,08,15,02,37,20.00
2016,08,15,02,38,20.00
2016,08,15,02,39,20.00
2016,08,15,02,40,19.90
2016,08,15,02,41,19.90
2016,08,15,02,42,19.90
2016,08,15,02,43,19.90
2016,08,15,02,44,19.90
2016,08,15,02,45,19.90
2016,08,15,02,46,19.80
2016,08,15,02,47,19.80
2016,08,15,02,48,19.80
2016,08,15,02,49,19.80
2016,08,15,02,50,19.80
2016,08,15,02,51,19.80
2016,08,15,02,52,19.80
2016,08,15,02,53,19.80
2016,08,15,02,54,19.80
2016,08,15,02,55,19.80
2016,08,15,02,56,19.70
2016,08,15,02,57,19.70
2016,08,15,02,58,19.70
2016,08,15,02,59,19.70
2016,08,15,03,00,19.70
2016,08,15,03,01,19.70
2016,08,15,03,02,19.70
2016,08,15,03,03,19.70
2016,08,15,03,04,19.70
2016,08,15,03,05,19.70
2016,08,15,03,06,19.70
2016,08,15,03,07,19.70
2016,08,15,03,08,19.60
2016,08,15,03,09,19.60
2016,08,15,03,10,19.60
2016,08,15,03,11,19.60
2016,08,15,03,12,19.50
2016,08,15,03,13,19.50
2016,08,15,03,14,19.50
2016,08,15,03,15,19.50
2016,08,15,03,16,19.40
2016,08,15,03,17,19.40
2016,08,15,03,18,19.40
2016,08,15,03,19,19.40
2016,08,15,03,20,19.40
2016,08,15,03,21,19.40
2016,08,15,03,22,19.40
2016,08,15,03,23,19.40
2016,08,15,03,24,19.30
2016,08,15,03,25,19.30
2016,08,15,03,26,19.30
2016,08,15,03,27,19.30
2016,08,15,03,28,19.30
2016,08,15,03,29,19.30
2016,08,15,03,30,19.30
2016,08,15,03,31,19.30
2016,08,15,03,32,19.30
2016,08,15,03,33,19.20
2016,08,15,03,34,19.20
2016,08,15,03,35,19.20
2016,08,15,03,36,19.20
2016,08,15,03,37,19.20
2016,08,15,03,38,19.20
2016,08,15,03,39,19.20
2016,08,15,03,40,19.10
2016,08,15,03,41,19.10
2016,08,15,03,42,19.00
2016,08,15,03,43,19.00
2016,08,15,03,44,19.00
2016,08,15,03,45,18.90
2016,08,15,03,46,18.90
2016,08,15,03,47,18.90
2016,08,15,03,48,18.90
2016,08,15,03,49,18.90
2016,08,15,03,50,18.80
2016,08,15,03,51,18.80
2016,08,15,03,52,18.80
2016,08,15,03,53,18.80
2016,08,15,03,54,18.80
2016,08,15,03,55,18.80
2016,08,15,03,56,18.80
2016,08,15,03,57,18.80
2016,08,15,03,58,18.80
2016,08,15,03,59,18.80
2016,08,15,04,00,18.70
2016,08,15,04,01,18.70
2016,08,15,04,02,18.70
2016,08,15,04,03,18.70
2016,08,15,04,04,18.70
2016,08,15,04,05,18.70
2016,08,15,04,06,18.70
2016,08,15,04,07,18.70
2016,08,15,04,08,18.70
2016,08,15,04,09,18.70
2016,08,15,04,10,18.70
2016,08,15,04,11,18.70
2016,08,15,04,12,18.60
2016,08,15,04,13,18.60
2016,08,15,04,14,18.60
2016,08,15,04,15,18.60
2016,08,15,04,16,18.50
2016,08,15,04,17,18.50
2016,08,15,04,18,18.40
2016,08,15,04,19,18.40
2016,08,15,04,20,18.40
2016,08,15,04,21,18.30
2016,08,15,04,22,18.30
2016,08,15,04,23,18.30
2016,08,15,04,24,18.30
2016,08,15,04,25,18.20
2016,08,15,04,26,18.20
2016,08,15,04,27,18.20
2016,08,15,04,28,18.20
2016,08,15,04,29,18.20
2016,08,15,04,30,18.20
2016,08,15,04,31,18.20
2016,08,15,04,32,18.20
2016,08,15,04,33,18.20
2016,08,15,04,34,18.20
2016,08,15,04,35,18.20
2016,08,15,04,36,18.20
2016,08,15,04,37,18.20
2016,08,15,04,38,18.20
2016,08,15,04,39,18.20
2016,08,15,04,40,18.20
2016,08,15,04,41,18.20
2016,08,15,04,42,18.20
2016,08,15,04,43,18.20
2016,08,15,04,44,18.20
2016,08,15,04,45,18.20
2016,08,15,04,46,18.20
2016,08,15,04,47,18.20
2016,08,15,04,48,18.20
2016,08,15,04,49,18.20
2016,08,15,04,50,18.20
2016,08,15,04,51,18.20
2016,08,15,04,52,18.20
2016,08,15,04,53,18.20
2016,08,15,04,54,18.20
2016,08,15,04,55,18.20
2016,08,15,04,56,18.20
2016,08,15,04,57,18.20
2016,08,15,04,58,18.20
2016,08,15,04,59,18.20
2016,08,15,05,00,18.20
2016,08,15,05,01,18.20
2016,08,15,05,02,18.20
2016,08,15,05,03,18.20
2016,08,15,05,04,18.20
2016,08,15,05,05,18.20
2016,08,15,05,06,18.30
2016,08,15,05,07,18.30
2016,08,15,05,08,18.30
2016,08,15,05,09,18.30
2016,08,15,05,10,18.20
2016,08,15,05,11,18.20
2016,08,15,05,12,18.20
2016,08,15,05,13,18.20
2016,08,15,05,14,18.20
2016,08,15,05,15,18.20
2016,08,15,05,16,18.20
2016,08,15,05,17,18.20
2016,08,15,05,18,18.20
2016,08,15,05,19,18.20
2016,08,15,05,20,18.20
2016,08,15,05,21,18.10
2016,08,15,05,22,18.10
2016,08,15,05,23,18.10
2016,08,15,05,24,18.10
2016,08,15,05,25,18.10
2016,08,15,05,26,18.10
2016,08,15,05,27,18.10
2016,08,15,05,28,18.10
2016,08,15,05,29,18.10
2016,08,15,05,30,18.10
2016,08,15,05,31,18.10
2016,08,15,05,32,18.10
2016,08,15,05,33,18.10
2016,08,15,05,34,18.10
2016,08,15,05,35,18.10
2016,08,15,05,36,18.10
2016,08,15,05,37,18.10
2016,08,15,05,38,18.20
2016,08,15,05,39,18.20
2016,08,15,05,40,18.20
2016,08,15,05,41,18.20
2016,08,15,05,42,18.30
2016,08,15,05,43,18.30
2016,08,15,05,44,18.40
2016,08,15,05,45,18.50
2016,08,15,05,46,18.60
2016,08,15,05,47,18.60
2016,08,15,05,48,18.60
2016,08,15,05,49,18.60
2016,08,15,05,50,18.60
2016,08,15,05,51,18.60
2016,08,15,05,52,18.50
2016,08,15,05,53,18.50
2016,08,15,05,54,18.50
2016,08,15,05,55,18.40
2016,08,15,05,56,18.40
2016,08,15,05,57,18.40
2016,08,15,05,58,18.30
2016,08,15,05,59,18.30
2016,08,15,06,00,18.30
2016,08,15,06,01,18.30
2016,08,15,06,02,18.20
2016,08,15,06,03,18.20
2016,08,15,06,04,18.20
2016,08,15,06,05,18.10
2016,08,15,06,06,18.10
2016,08,15,06,07,18.10
2016,08,15,06,08,18.10
2016,08,15,06,09,18.00
2016,08,15,06,10,18.00
2016,08,15,06,11,17.90
2016,08,15,06,12,17.90
2016,08,15,06,13,17.80
2016,08,15,06,14,17.80
2016,08,15,06,15,17.70
2016,08,15,06,16,17.70
2016,08,15,06,17,17.60
2016,08,15,06,18,17.50
2016,08,15,06,19,17.50
2016,08,15,06,20,17.40
2016,08,15,06,21,17.40
2016,08,15,06,22,17.30
2016,08,15,06,23,17.30
2016,08,15,06,24,17.20
2016,08,15,06,25,17.20
2016,08,15,06,26,17.10
2016,08,15,06,27,17.10
2016,08,15,06,28,17.10
2016,08,15,06,29,17.10
2016,08,15,06,30,17.10
2016,08,15,06,31,17.00
2016,08,15,06,32,17.00
2016,08,15,06,33,16.90
2016,08,15,06,34,16.90
2016,08,15,06,35,16.80
2016,08,15,06,36,16.80
2016,08,15,06,37,16.80
2016,08,15,06,38,16.70
2016,08,15,06,39,16.70
2016,08,15,06,40,16.70
2016,08,15,06,41,16.70
2016,08,15,06,42,16.60
2016,08,15,06,43,16.60
2016,08,15,06,44,16.60
2016,08,15,06,45,16.60
2016,08,15,06,46,16.70
2016,08,15,06,47,16.70
2016,08,15,06,48,16.70
2016,08,15,06,49,16.70
2016,08,15,06,50,16.70
2016,08,15,06,51,16.70
2016,08,15,06,52,16.80
2016,08,15,06,53,16.80
2016,08,15,06,54,17.00
2016,08,15,06,55,17.00
2016,08,15,06,56,17.20
2016,08,15,06,57,17.30
2016,08,15,06,58,17.30
2016,08,15,06,59,17.50
2016,08,15,07,00,17.50
2016,08,15,07,01,17.60
2016,08,15,07,02,17.70
2016,08,15,07,03,17.80
2016,08,15,07,04,17.80
2016,08,15,07,05,17.90
2016,08,15,07,06,18.00
2016,08,15,07,07,18.00
2016,08,15,07,08,18.10
2016,08,15,07,09,18.20
2016,08,15,07,10,18.20
2016,08,15,07,11,18.30
2016,08,15,07,12,18.30
2016,08,15,07,13,18.30
2016,08,15,07,14,18.40
2016,08,15,07,15,18.40
2016,08,15,07,16,18.40
2016,08,15,07,17,18.50
2016,08,15,07,18,18.50
2016,08,15,07,19,18.60
2016,08,15,07,20,18.60
2016,08,15,07,21,18.60
2016,08,15,07,22,18.70
2016,08,15,07,23,18.70
2016,08,15,07,24,18.70
2016,08,15,07,25,18.70
2016,08,15,07,26,18.80
2016,08,15,07,27,18.80
2016,08,15,07,28,18.80
2016,08,15,07,29,18.80
2016,08,15,07,30,18.80
2016,08,15,07,31,18.80
2016,08,15,07,32,18.80
2016,08,15,07,33,18.90
2016,08,15,07,34,18.90
2016,08,15,07,35,18.90
2016,08,15,07,36,18.90
2016,08,15,07,37,18.90
2016,08,15,07,38,18.90
2016,08,15,07,39,18.90
2016,08,15,07,40,19.00
2016,08,15,07,41,19.00
2016,08,15,07,42,19.00
2016,08,15,07,43,19.00
2016,08,15,07,44,19.00
2016,08,15,07,45,19.00
2016,08,15,07,46,19.00
2016,08,15,07,47,19.10
2016,08,15,07,48,19.10
2016,08,15,07,49,19.10
2016,08,15,07,50,19.10
2016,08,15,07,51,19.10
2016,08,15,07,52,19.10
2016,08,15,07,53,19.10
2016,08,15,07,54,19.10
2016,08,15,07,55,19.20
2016,08,15,07,56,19.20
2016,08,15,07,57,19.20
2016,08,15,07,58,19.20
2016,08,15,07,59,19.20
2016,08,15,08,00,19.20
2016,08,15,08,01,19.30
2016,08,15,08,02,19.30
2016,08,15,08,03,19.30
2016,08,15,08,04,19.30
2016,08,15,08,05,19.30
2016,08,15,08,06,19.30
2016,08,15,08,07,19.30
2016,08,15,08,08,19.30
2016,08,15,08,09,19.30
2016,08,15,08,10,19.40
2016,08,15,08,11,19.40
2016,08,15,08,12,19.40
2016,08,15,08,13,19.40
2016,08,15,08,14,19.40
2016,08,15,08,15,19.40
2016,08,15,08,16,19.40
2016,08,15,08,17,19.40
2016,08,15,08,18,19.50
2016,08,15,08,19,19.50
2016,08,15,08,20,19.50
2016,08,15,08,21,19.50
2016,08,15,08,22,19.60
2016,08,15,08,23,19.60
2016,08,15,08,24,19.60
2016,08,15,08,25,19.60
2016,08,15,08,26,19.60
2016,08,15,08,27,19.70
2016,08,15,08,28,19.70
2016,08,15,08,29,19.70
2016,08,15,08,30,19.70
2016,08,15,08,31,19.80
2016,08,15,08,32,19.80
2016,08,15,08,33,19.80
2016,08,15,08,34,19.80
2016,08,15,08,35,19.80
2016,08,15,08,36,19.80
2016,08,15,08,37,19.80
2016,08,15,08,38,19.80
2016,08,15,08,39,19.90
2016,08,15,08,40,19.90
2016,08,15,08,41,19.90
2016,08,15,08,42,19.90
2016,08,15,08,43,19.90
2016,08,15,08,44,20.00
2016,08,15,08,45,20.00
2016,08,15,08,46,20.10
2016,08,15,08,47,20.10
2016,08,15,08,48,20.10
2016,08,15,08,49,20.10
2016,08,15,08,50,20.10
2016,08,15,08,51,20.10
2016,08,15,08,52,20.00
2016,08,15,08,53,20.00
2016,08,15,08,54,19.90
2016,08,15,08,55,19.90
2016,08,15,08,56,19.90
2016,08,15,08,57,19.90
2016,08,15,08,58,19.90
2016,08,15,08,59,19.90
2016,08,15,09,00,19.90
2016,08,15,09,01,19.90
2016,08,15,09,02,19.90
2016,08,15,09,03,19.90
2016,08,15,09,04,19.90
2016,08,15,09,05,19.80
2016,08,15,09,06,19.80
2016,08,15,09,07,19.80
2016,08,15,09,08,19.80
2016,08,15,09,09,19.70
2016,08,15,09,10,19.70
2016,08,15,09,11,19.70
2016,08,15,09,12,19.70
2016,08,15,09,13,19.80
2016,08,15,09,14,19.80
2016,08,15,09,15,19.80
2016,08,15,09,16,19.80
2016,08,15,09,17,19.80
2016,08,15,09,18,19.80
2016,08,15,09,19,19.80
2016,08,15,09,20,19.80
2016,08,15,09,21,19.80
2016,08,15,09,22,19.80
2016,08,15,09,23,19.80
2016,08,15,09,24,19.70
2016,08,15,09,25,19.70
2016,08,15,09,26,19.70
2016,08,15,09,27,19.80
2016,08,15,09,28,19.80
2016,08,15,09,29,19.80
2016,08,15,09,30,19.80
2016,08,15,09,31,19.80
2016,08,15,09,32,19.80
2016,08,15,09,33,19.70
2016,08,15,09,34,19.70
2016,08,15,09,35,19.70
2016,08,15,09,36,19.70
2016,08,15,09,37,19.80
2016,08,15,09,38,19.80
2016,08,15,09,39,19.80
2016,08,15,09,40,19.80
2016,08,15,09,41,19.80
2016,08,15,09,42,19.80
2016,08,15,09,43,19.80
2016,08,15,09,44,19.80
2016,08,15,09,45,19.80
2016,08,15,09,46,19.70
2016,08,15,09,47,19.70
2016,08,15,09,48,19.70
2016,08,15,09,49,19.80
2016,08,15,09,50,19.80
2016,08,15,09,51,19.80
2016,08,15,09,52,19.80
2016,08,15,09,53,19.70
2016,08,15,09,54,19.70
2016,08,15,09,55,19.70
2016,08,15,09,56,19.80
2016,08,15,09,57,19.80
2016,08,15,09,58,19.80
2016,08,15,09,59,19.80
2016,08,15,10,00,19.80
2016,08,15,10,01,19.80
2016,08,15,10,02,19.80
2016,08,15,10,03,19.80
2016,08,15,10,04,19.80
2016,08,15,10,05,19.80
2016,08,15,10,06,19.80
2016,08,15,10,07,19.80
2016,08,15,10,08,19.80
2016,08,15,10,09,19.80
2016,08,15,10,10,19.80
2016,08,15,10,11,19.80
2016,08,15,10,12,19.80
2016,08,15,10,13,19.80
2016,08,15,10,14,19.80
2016,08,15,10,15,19.80
2016,08,15,10,16,19.90
2016,08,15,10,17,19.90
2016,08,15,10,18,19.90
2016,08,15,10,19,20.00
2016,08,15,10,20,20.00
2016,08,15,10,21,20.00
2016,08,15,10,22,20.10
2016,08,15,10,23,20.10
2016,08,15,10,24,20.10
2016,08,15,10,25,20.10
2016,08,15,10,26,20.20
2016,08,15,10,27,20.20
2016,08,15,10,28,20.20
2016,08,15,10,29,20.20
2016,08,15,10,30,20.20
2016,08,15,10,31,20.20
2016,08,15,10,32,20.20
2016,08,15,10,33,20.30
2016,08,15,10,34,20.30
2016,08,15,10,35,20.40
2016,08,15,10,36,20.50
2016,08,15,10,37,20.60
2016,08,15,10,38,20.60
2016,08,15,10,39,20.60
2016,08,15,10,40,20.70
2016,08,15,10,41,20.70
2016,08,15,10,42,20.70
2016,08,15,10,43,20.80
2016,08,15,10,44,20.80
2016,08,15,10,45,20.90
2016,08,15,10,46,20.90
2016,08,15,10,47,20.90
2016,08,15,10,48,21.00
2016,08,15,10,49,21.00
2016,08,15,10,50,21.10
2016,08,15,10,51,21.10
2016,08,15,10,52,21.20
2016,08,15,10,53,21.20
2016,08,15,10,54,21.20
2016,08,15,10,55,21.30
2016,08,15,10,56,21.30
2016,08,15,10,57,21.30
2016,08,15,10,58,21.40
2016,08,15,10,59,21.40
2016,08,15,11,00,21.40
2016,08,15,11,01,21.50
2016,08,15,11,02,21.50
2016,08,15,11,03,21.50
2016,08,15,11,04,21.50
2016,08,15,11,05,21.40
2016,08,15,11,06,21.40
2016,08,15,11,07,21.40
2016,08,15,11,08,21.40
2016,08,15,11,09,21.40
2016,08,15,11,10,21.50
2016,08,15,11,11,21.50
2016,08,15,11,12,21.60
2016,08,15,11,13,21.60
2016,08,15,11,14,21.70
2016,08,15,11,15,21.70
2016,08,15,11,16,21.80
2016,08,15,11,17,21.80
2016,08,15,11,18,21.80
2016,08,15,11,19,21.90
2016,08,15,11,20,21.90
2016,08,15,11,21,21.90
2016,08,15,11,22,21.90
2016,08,15,11,23,22.00
2016,08,15,11,24,22.00
2016,08,15,11,25,22.00
2016,08,15,11,26,22.00
2016,08,15,11,27,21.90
2016,08,15,11,28,21.90
2016,08,15,11,29,21.90
2016,08,15,11,30,21.90
2016,08,15,11,31,22.00
2016,08,15,11,32,22.00
2016,08,15,11,33,22.00
2016,08,15,11,34,22.10
2016,08,15,11,35,22.20
2016,08,15,11,36,22.20
2016,08,15,11,37,22.20
2016,08,15,11,38,22.20
2016,08,15,11,39,22.20
2016,08,15,11,40,22.20
2016,08,15,11,41,22.20
2016,08,15,11,42,22.30
2016,08,15,11,43,22.30
2016,08,15,11,44,22.40
2016,08,15,11,45,22.40
2016,08,15,11,46,22.40
2016,08,15,11,47,22.40
2016,08,15,11,48,22.30
2016,08,15,11,49,22.40
2016,08,15,11,50,22.30
2016,08,15,11,51,22.30
2016,08,15,11,52,22.30
2016,08,15,11,53,22.20
2016,08,15,11,54,22.20
2016,08,15,11,55,22.30
2016,08,15,11,56,22.30
2016,08,15,11,57,22.30
2016,08,15,11,58,22.20
2016,08,15,11,59,22.30
2016,08,15,12,00,22.30
2016,08,15,12,01,22.30
2016,08,15,12,02,22.30
2016,08,15,12,03,22.40
2016,08,15,12,04,22.40
2016,08,15,12,05,22.40
2016,08,15,12,06,22.40
2016,08,15,12,07,22.50
2016,08,15,12,08,22.50
2016,08,15,12,09,22.50
2016,08,15,12,10,22.50
2016,08,15,12,11,22.50
2016,08,15,12,12,22.50
2016,08,15,12,13,22.60
2016,08,15,12,14,22.60
2016,08,15,12,15,22.60
2016,08,15,12,16,22.60
2016,08,15,12,17,22.60
2016,08,15,12,18,22.60
2016,08,15,12,19,22.70
2016,08,15,12,20,22.70
2016,08,15,12,21,22.80
2016,08,15,12,22,22.80
2016,08,15,12,23,22.80
2016,08,15,12,24,22.80
2016,08,15,12,25,22.80
2016,08,15,12,26,22.70
2016,08,15,12,27,22.70
2016,08,15,12,28,22.70
2016,08,15,12,29,22.60
2016,08,15,12,30,22.60
2016,08,15,12,31,22.60
2016,08,15,12,32,22.60
2016,08,15,12,33,22.50
2016,08,15,12,34,22.50
2016,08,15,12,35,22.50
2016,08,15,12,36,22.50
2016,08,15,12,37,22.50
2016,08,15,12,38,22.50
2016,08,15,12,39,22.60
2016,08,15,12,40,22.50
2016,08,15,12,41,22.40
2016,08,15,12,42,22.40
2016,08,15,12,43,22.40
2016,08,15,12,44,22.40
2016,08,15,12,45,22.40
2016,08,15,12,46,22.50
2016,08,15,12,47,22.50
2016,08,15,12,48,22.50
2016,08,15,12,49,22.50
2016,08,15,12,50,22.60
2016,08,15,12,51,22.70
2016,08,15,12,52,22.70
2016,08,15,12,53,22.70
2016,08,15,12,54,22.80
2016,08,15,12,55,22.80
2016,08,15,12,56,22.70
2016,08,15,12,57,22.70
2016,08,15,12,58,22.70
2016,08,15,12,59,22.70
2016,08,15,13,00,22.80
2016,08,15,13,01,22.80
2016,08,15,13,02,22.90
2016,08,15,13,03,23.00
2016,08,15,13,04,23.10
2016,08,15,13,05,23.10
2016,08,15,13,06,23.10
2016,08,15,13,07,23.20
2016,08,15,13,08,23.20
2016,08,15,13,09,23.20
2016,08,15,13,10,23.20
2016,08,15,13,11,23.20
2016,08,15,13,12,23.20
2016,08,15,13,13,23.20
2016,08,15,13,14,23.30
2016,08,15,13,15,23.30
2016,08,15,13,16,23.40
2016,08,15,13,17,23.40
2016,08,15,13,18,23.30
2016,08,15,13,19,23.30
2016,08,15,13,20,23.20
2016,08,15,13,21,23.20
2016,08,15,13,22,23.20
2016,08,15,13,23,23.20
2016,08,15,13,24,23.10
2016,08,15,13,25,23.10
2016,08,15,13,26,23.10
2016,08,15,13,27,23.00
2016,08,15,13,28,23.00
2016,08,15,13,29,23.10
2016,08,15,13,30,23.20
2016,08,15,13,31,23.20
2016,08,15,13,32,23.20
2016,08,15,13,33,23.30
2016,08,15,13,34,23.30
2016,08,15,13,35,23.30
2016,08,15,13,36,23.30
2016,08,15,13,37,23.30
2016,08,15,13,38,23.30
2016,08,15,13,39,23.30
2016,08,15,13,40,23.30
2016,08,15,13,41,23.20
2016,08,15,13,42,23.30
2016,08,15,13,43,23.30
2016,08,15,13,44,23.40
2016,08,15,13,45,23.40
2016,08,15,13,46,23.50
2016,08,15,13,47,23.60
2016,08,15,13,48,23.70
2016,08,15,13,49,23.80
2016,08,15,13,50,23.90
2016,08,15,13,51,24.00
2016,08,15,13,52,24.10
2016,08,15,13,53,24.10
2016,08,15,13,54,24.00
2016,08,15,13,55,23.90
2016,08,15,13,56,23.90
2016,08,15,13,57,23.90
2016,08,15,13,58,23.90
2016,08,15,13,59,23.90
2016,08,15,14,00,23.90
2016,08,15,14,01,24.00
2016,08,15,14,02,24.10
2016,08,15,14,03,24.10
2016,08,15,14,04,24.20
2016,08,15,14,05,24.20
2016,08,15,14,06,24.20
2016,08,15,14,07,24.20
2016,08,15,14,08,24.20
2016,08,15,14,09,24.20
2016,08,15,14,10,24.20
2016,08,15,14,11,24.20
2016,08,15,14,12,24.30
2016,08,15,14,13,24.30
2016,08,15,14,14,24.40
2016,08,15,14,15,24.50
2016,08,15,14,16,24.60
2016,08,15,14,17,24.60
2016,08,15,14,18,24.70
2016,08,15,14,19,24.70
2016,08,15,14,20,24.80
2016,08,15,14,21,24.80
2016,08,15,14,22,24.80
2016,08,15,14,23,24.80
2016,08,15,14,24,24.80
2016,08,15,14,25,24.70
2016,08,15,14,26,24.70
2016,08,15,14,27,24.70
2016,08,15,14,28,24.60
2016,08,15,14,29,24.70
2016,08,15,14,30,24.70
2016,08,15,14,31,24.70
2016,08,15,14,32,24.80
2016,08,15,14,33,24.80
2016,08,15,14,34,24.90
2016,08,15,14,35,24.90
2016,08,15,14,36,24.90
2016,08,15,14,37,25.00
2016,08,15,14,38,25.00
2016,08,15,14,39,25.00
2016,08,15,14,40,24.90
2016,08,15,14,41,24.80
2016,08,15,14,42,24.80
2016,08,15,14,43,24.90
2016,08,15,14,44,24.80
2016,08,15,14,45,24.70
2016,08,15,14,46,24.60
2016,08,15,14,47,24.60
2016,08,15,14,48,24.60
2016,08,15,14,49,24.60
2016,08,15,14,50,24.60
2016,08,15,14,51,24.70
2016,08,15,14,52,24.70
2016,08,15,14,53,24.60
2016,08,15,14,54,24.40
2016,08,15,14,55,24.30
2016,08,15,14,56,24.30
2016,08,15,14,57,24.30
2016,08,15,14,58,24.30
2016,08,15,14,59,24.30
2016,08,15,15,00,24.30
2016,08,15,15,01,24.30
2016,08,15,15,02,24.40
2016,08,15,15,03,24.50
2016,08,15,15,04,24.60
2016,08,15,15,05,24.60
2016,08,15,15,06,24.70
2016,08,15,15,07,24.70
2016,08,15,15,08,24.70
2016,08,15,15,09,24.70
2016,08,15,15,10,24.60
2016,08,15,15,11,24.60
2016,08,15,15,12,24.50
2016,08,15,15,13,24.50
2016,08,15,15,14,24.50
2016,08,15,15,15,24.50
2016,08,15,15,16,24.40
2016,08,15,15,17,24.50
2016,08,15,15,18,24.50
2016,08,15,15,19,24.60
2016,08,15,15,20,24.60
2016,08,15,15,21,24.70
2016,08,15,15,22,24.70
2016,08,15,15,23,24.80
2016,08,15,15,24,24.80
2016,08,15,15,25,24.80
2016,08,15,15,26,24.80
2016,08,15,15,27,24.90
2016,08,15,15,28,25.10
2016,08,15,15,29,25.10
2016,08,15,15,30,25.10
2016,08,15,15,31,25.10
2016,08,15,15,32,25.10
2016,08,15,15,33,25.10
2016,08,15,15,34,25.20
2016,08,15,15,35,25.20
2016,08,15,15,36,25.20
2016,08,15,15,37,25.20
2016,08,15,15,38,25.30
2016,08,15,15,39,25.30
2016,08,15,15,40,25.30
2016,08,15,15,41,25.40
2016,08,15,15,42,25.50
2016,08,15,15,43,25.60
2016,08,15,15,44,25.70
2016,08,15,15,45,25.80
2016,08,15,15,46,25.80
2016,08,15,15,47,25.80
2016,08,15,15,48,25.80
2016,08,15,15,49,25.80
2016,08,15,15,50,25.80
2016,08,15,15,51,25.80
2016,08,15,15,52,25.80
2016,08,15,15,53,25.80
2016,08,15,15,54,25.80
2016,08,15,15,55,25.80
2016,08,15,15,56,25.80
2016,08,15,15,57,25.80
2016,08,15,15,58,25.80
2016,08,15,15,59,25.80
2016,08,15,16,00,25.70
2016,08,15,16,01,25.70
2016,08,15,16,02,25.70
2016,08,15,16,03,25.70
2016,08,15,16,04,25.60
2016,08,15,16,05,25.60
2016,08,15,16,06,25.60
2016,08,15,16,07,25.60
2016,08,15,16,08,25.50
2016,08,15,16,09,25.50
2016,08,15,16,10,25.40
2016,08,15,16,11,25.30
2016,08,15,16,12,25.30
2016,08,15,16,13,25.30
2016,08,15,16,14,25.30
2016,08,15,16,15,25.20
2016,08,15,16,16,25.10
2016,08,15,16,17,25.10
2016,08,15,16,18,25.00
2016,08,15,16,19,25.00
2016,08,15,16,20,25.00
2016,08,15,16,21,25.10
2016,08,15,16,22,25.10
2016,08,15,16,23,25.10
2016,08,15,16,24,25.20
2016,08,15,16,25,25.30
2016,08,15,16,26,25.30
2016,08,15,16,27,25.40
2016,08,15,16,28,25.50
2016,08,15,16,29,25.60
2016,08,15,16,30,25.70
2016,08,15,16,31,25.80
2016,08,15,16,32,25.90
2016,08,15,16,33,26.00
2016,08,15,16,34,26.10
2016,08,15,16,35,26.10
2016,08,15,16,36,26.10
2016,08,15,16,37,26.10
2016,08,15,16,38,26.10
2016,08,15,16,39,26.00
2016,08,15,16,40,26.00
2016,08,15,16,41,26.00
2016,08,15,16,42,26.00
2016,08,15,16,43,26.00
2016,08,15,16,44,26.00
2016,08,15,16,45,26.10
2016,08,15,16,46,26.10
2016,08,15,16,47,26.20
2016,08,15,16,48,26.20
2016,08,15,16,49,26.20
2016,08,15,16,50,26.20
2016,08,15,16,51,26.30
2016,08,15,16,52,26.30
2016,08,15,16,53,26.30
2016,08,15,16,54,26.40
2016,08,15,16,55,26.30
2016,08,15,16,56,26.30
2016,08,15,16,57,26.20
2016,08,15,16,58,26.20
2016,08,15,16,59,26.20
2016,08,15,17,00,26.20
2016,08,15,17,01,26.20
2016,08,15,17,02,26.30
2016,08,15,17,03,26.30
2016,08,15,17,04,26.40
2016,08,15,17,05,26.40
2016,08,15,17,06,26.40
2016,08,15,17,07,26.50
2016,08,15,17,08,26.50
2016,08,15,17,09,26.50
2016,08,15,17,10,26.50
2016,08,15,17,11,26.40
2016,08,15,17,12,26.40
2016,08,15,17,13,26.30
2016,08,15,17,14,26.30
2016,08,15,17,15,26.30
2016,08,15,17,16,26.30
2016,08,15,17,17,26.30
2016,08,15,17,18,26.30
2016,08,15,17,19,26.30